Home   Weather   Växjö   Past weeks

Flag for Sweden Past Weather in Växjö, Sweden — Yesterday and Last 2 Weeks

Now
66 °F

Broken clouds.


Feels Like: 66 °F
Forecast: 53 / 63 °F
Wind: 9 mph from Southwest

Location: Vaxjo Airport

Current Time: Jul 28, 2017 at 7:07:56 pm

Latest Report: Jul 28, 2017 at 6:50 pm


Visibility: N/A

Pressure: 29.71 "Hg

Humidity: 52%

Dew Point: 48 °F

Location of VäxjöLocation

Past Weather in Växjö — Graph

°F

Växjö Temperature Yesterday

Maximum temperature yesterday: 72 °F (at 12:50 pm)
Minimum temperature yesterday: 45 °F (at 4:20 am)
Average temperature yesterday: 60 °F

High & Low Weather Summary for the Past Weeks

 TemperatureHumidityPressure
High75 °F (Jul 20, 3:50 pm)100% (Jul 14, 4:50 am)30.12 "Hg (Jul 14, 4:50 am)
Low43 °F (Jul 20, 5:20 am)34% (Jul 20, 3:50 pm)29.59 "Hg (Jul 27, 7:50 pm)
Average60 °F71%29.92 "Hg
* Reported Jul 13 6:20 pm — Jul 28 6:20 pm, Växjö. Weather by CustomWeather, © 2017

Note: Actual official high and low records may vary slightly from our data, if they occured in-between our weather recording intervals... More about our weather records

Advertising

Växjö Weather History for the Previous 24 Hours

Scroll right to see more
 ConditionsComfort  
Time TempWeatherWind HumidityBarometerVisibility
6:20 pm
Fri, Jul 28
66 °FPassing clouds.9 mph49%29.71 "HgN/A
5:20 pm70 °FPassing clouds.9 mph43%29.71 "HgN/A
4:50 pm70 °FSunny.10 mph43%29.71 "Hg10 mi
4:20 pm70 °FSunny.8 mph43%29.71 "Hg10 mi
3:50 pm70 °FSunny.13 mph43%29.71 "Hg10 mi
3:20 pm70 °FSunny.12 mph43%29.71 "Hg10 mi
2:50 pm68 °FScattered clouds.12 mph46%29.68 "HgN/A
2:20 pm70 °FScattered clouds.9 mph43%29.71 "HgN/A
1:50 pm70 °FPassing clouds.13 mph43%29.68 "HgN/A
1:20 pm70 °FMild.14 mph46%29.68 "HgN/A
12:50 pm68 °FPassing clouds.13 mph49%29.68 "HgN/A
12:20 pm68 °FScattered clouds.12 mph49%29.68 "HgN/A
11:50 am66 °FPassing clouds.9 mph49%29.68 "HgN/A
11:20 am64 °FScattered clouds.12 mph60%29.68 "HgN/A
10:50 am64 °FScattered clouds.10 mph60%29.68 "HgN/A
10:20 am64 °FScattered clouds.8 mph60%29.68 "HgN/A
9:50 am61 °FScattered clouds.9 mph72%29.68 "HgN/A
9:20 am63 °FScattered clouds.8 mph77%29.65 "HgN/A
8:50 am61 °FScattered clouds.8 mph83%29.65 "HgN/A
8:20 am59 °FPassing clouds.6 mph82%29.65 "HgN/A
7:50 am57 °FPassing clouds.7 mph88%29.65 "HgN/A
7:20 am57 °FPassing clouds.7 mph94%29.65 "HgN/A
6:50 am57 °FScattered clouds.5 mph94%29.65 "HgN/A
6:20 am57 °FLow clouds.7 mph94%29.65 "HgN/A
5:50 am57 °FPartly sunny.6 mph94%29.65 "HgN/A
5:20 am57 °FFog.6 mph94%29.65 "Hg6 mi
4:50 am57 °FFog.6 mph94%29.62 "Hg6 mi
4:20 am57 °FFog.6 mph94%29.62 "Hg5 mi
3:50 am57 °FPartly cloudy.6 mph94%29.62 "HgN/A
3:20 am57 °FFog.3 mph94%29.62 "Hg6 mi
2:50 am57 °FPartly cloudy.5 mph94%29.62 "HgN/A
2:20 am57 °FMostly cloudy.3 mph94%29.62 "HgN/A
1:50 am55 °FFog.2 mph100%29.62 "Hg6 mi
1:20 am57 °FPassing clouds.3 mph94%29.62 "HgN/A
12:50 am57 °FPassing clouds.3 mph94%29.62 "HgN/A
12:20 am59 °FPassing clouds.3 mph88%29.62 "HgN/A
11:50 pm
Thu, Jul 27
59 °FPartly cloudy.5 mph94%29.62 "HgN/A
11:20 pm61 °FClear.3 mph88%29.62 "Hg10 mi
10:50 pm59 °FPassing clouds.5 mph94%29.62 "HgN/A
10:20 pm59 °FClear.5 mph94%29.62 "Hg10 mi
9:50 pm61 °FClear.5 mph88%29.62 "Hg10 mi
9:20 pm61 °FSunny.5 mph88%29.62 "Hg10 mi
8:50 pm63 °FSunny.8 mph77%29.62 "Hg10 mi
8:20 pm64 °FSunny.5 mph78%29.59 "Hg10 mi
7:50 pm66 °FPassing clouds.6 mph68%29.59 "HgN/A
7:20 pm68 °FSunny.6 mph60%29.62 "Hg10 mi
Weather by CustomWeather, © 2017

See weather overviewHow to use our weather pages